SV2BZQ-2 Weather Reports


time (UTC)temp
F
wind
direction
speed
knots
gust
knots
rain 1hr
in
rain 24hr
in
rain mn
in
humidity
%
barometer
mb
20260508060355 59 246 0.0 1.7 0.00 0.00 0.00 93 1015.0
20260508060321 59 246 0.0 1.7 0.00 0.00 0.00 93 1015.0
20260508060154 59 246 0.0 1.7 0.00 0.00 0.00 93 1014.9
20260508060017 59 313 0.0 0.9 0.00 0.00 0.00 93 1014.9
20260508055837 59 313 0.0 0.9 0.00 0.00 0.00 93 1014.8
20260508055710 59 313 0.0 0.9 0.00 0.00 0.00 93 1014.7
20260508055608 59 313 0.0 0.9 0.00 0.00 0.00 93 1014.7
20260508055524 58 313 0.0 0.0 0.00 0.00 0.00 93 1014.7
20260508055333 58 313 0.0 0.0 0.00 0.00 0.00 93 1014.7
20260508055138 58 313 0.0 0.0 0.00 0.00 0.00 93 1014.7
20260508055011 58 313 0.0 0.9 0.00 0.00 0.00 93 1014.7
20260508054821 58 313 0.0 1.7 0.00 0.00 0.00 93 1014.7
20260508054352 58 313 0.0 1.7 0.00 0.00 0.00 93 1014.7
20260508054220 58 313 0.0 1.7 0.00 0.00 0.00 93 1014.8
20260508054054 58 313 0.0 1.7 0.00 0.00 0.00 93 1014.8
20260508053910 58 313 0.0 1.7 0.00 0.00 0.00 93 1014.8
20260508053600 58 313 0.0 0.9 0.00 0.00 0.00 93 1014.8
20260508053501 58 313 0.0 0.9 0.00 0.00 0.00 93 1014.8
20260508053231 58 313 0.0 0.9 0.00 0.00 0.00 93 1014.8
20260508053107 58 313 0.0 0.0 0.00 0.00 0.00 93 1014.7
20260508053045 58 313 0.0 0.0 0.00 0.00 0.00 93 1014.7
20260508052848 58 313 0.0 0.9 0.00 0.00 0.00 93 1014.7
20260508052652 58 313 0.0 0.9 0.00 0.00 0.00 92 1014.7
20260508052329 57 313 0.0 0.9 0.00 0.00 0.00 92 1014.7
20260508052211 57 313 0.0 0.9 0.00 0.00 0.00 92 1014.7
20260508052106 57 313 0.0 0.9 0.00 0.00 0.00 92 1014.7
20260508052047 57 313 0.0 1.7 0.00 0.00 0.00 92 1014.7
20260508051910 57 313 0.9 1.7 0.00 0.00 0.00 92 1014.7
20260508051741 57 313 0.9 1.7 0.00 0.00 0.00 92 1014.6
20260508051350 57 313 0.9 2.6 0.00 0.00 0.00 92 1014.7
20260508051219 57 313 0.9 2.6 0.00 0.00 0.00 92 1014.7
20260508051105 57 312 0.9 2.6 0.00 0.00 0.00 92 1014.7
20260508051005 57 323 0.9 2.6 0.00 0.00 0.00 92 1014.7
20260508050741 57 273 0.9 2.6 0.00 0.00 0.00 92 1014.7
20260508050532 57 284 0.9 2.6 0.00 0.00 0.00 92 1014.7
20260508050519 57 285 0.9 2.6 0.00 0.00 0.00 92 1014.7
20260508050338 57 276 0.9 2.6 0.00 0.00 0.00 92 1014.7
20260508045929 57 306 0.0 1.7 0.00 0.00 0.00 93 1014.6
20260508045903 57 306 0.0 1.7 0.00 0.00 0.00 93 1014.7
20260508045712 57 306 0.0 0.9 0.00 0.00 0.00 93 1014.7
20260508045502 57 306 0.0 0.9 0.00 0.00 0.00 93 1014.6
20260508045317 57 306 0.0 0.9 0.00 0.00 0.00 93 1014.6
20260508045115 57 306 0.0 0.9 0.00 0.00 0.00 93 1014.6
20260508044642 57 306 0.0 0.9 0.00 0.00 0.00 93 1014.5
20260508044517 57 306 0.0 0.9 0.00 0.00 0.00 93 1014.5
20260508044339 57 306 0.0 0.9 0.00 0.00 0.00 93 1014.4
20260508044222 57 306 0.0 0.9 0.00 0.00 0.00 93 1014.4
20260508044053 57 306 0.0 0.9 0.00 0.00 0.00 93 1014.4
20260508043536 57 327 0.0 0.9 0.00 0.00 0.00 93 1014.4
20260508043319 57 328 0.0 0.0 0.00 0.00 0.00 93 1014.4
20260508043124 57 327 0.0 0.0 0.00 0.00 0.00 93 1014.3
20260508043058 57 327 0.0 0.0 0.00 0.00 0.00 92 1014.3
20260508042928 57 327 0.0 0.0 0.00 0.00 0.00 92 1014.3
20260508042753 57 327 0.0 0.0 0.00 0.00 0.00 92 1014.3
20260508042731 57 327 0.0 0.0 0.00 0.00 0.00 92 1014.3
20260508042620 57 327 0.0 0.0 0.00 0.00 0.00 93 1014.4
20260508042423 56 327 0.0 0.9 0.00 0.00 0.00 93 1014.3
20260508042332 56 328 0.0 0.9 0.00 0.00 0.00 93 1014.3
20260508042308 56 327 0.0 0.9 0.00 0.00 0.00 93 1014.4
20260508042101 56 327 0.0 0.9 0.00 0.00 0.00 92 1014.4
20260508041932 56 327 0.0 0.9 0.00 0.00 0.00 92 1014.4
20260508041744 56 327 0.0 0.9 0.00 0.00 0.00 92 1014.4
20260508041548 56 327 0.0 0.9 0.00 0.00 0.00 92 1014.3
20260508041511 56 327 0.0 0.9 0.00 0.00 0.00 92 1014.3
20260508041219 56 328 0.0 0.9 0.00 0.00 0.00 92 1014.3
20260508041024 56 327 0.0 0.9 0.00 0.00 0.00 92 1014.4
20260508040847 56 327 0.0 0.9 0.00 0.00 0.00 92 1014.4
20260508040647 56 327 0.0 0.9 0.00 0.00 0.00 92 1014.4
20260508040559 56 327 0.0 0.9 0.00 0.00 0.00 92 1014.4
20260508040508 56 327 0.0 0.9 0.00 0.00 0.00 92 1014.4
20260508040249 56 327 0.9 1.7 0.00 0.00 0.00 92 1014.5
20260508040047 56 327 0.9 1.7 0.00 0.00 0.00 92 1014.5
20260508040004 56 327 0.9 1.7 0.00 0.00 0.00 92 1014.5
20260508035839 56 315 0.9 1.7 0.00 0.00 0.00 92 1014.6
20260508035703 56 314 0.9 1.7 0.00 0.00 0.00 92 1014.6
20260508035638 56 315 0.9 1.7 0.00 0.00 0.00 92 1014.6
20260508035517 56 315 0.9 1.7 0.00 0.00 0.00 92 1014.6
20260508035343 56 324 0.9 1.7 0.00 0.00 0.00 92 1014.6
20260508035220 56 327 0.9 1.7 0.00 0.00 0.00 92 1014.7
20260508035155 56 326 0.9 1.7 0.00 0.00 0.00 92 1014.7
20260508034955 56 305 0.9 1.7 0.00 0.00 0.00 92 1014.7
20260508034745 56 304 0.9 1.7 0.00 0.00 0.00 92 1014.6
20260508034715 56 304 0.9 1.7 0.00 0.00 0.00 92 1014.6
20260508034605 56 305 0.9 1.7 0.00 0.00 0.00 92 1014.7
20260508034356 56 305 0.9 1.7 0.00 0.00 0.00 92 1014.7
20260508034201 56 305 0.9 1.7 0.00 0.00 0.00 91 1014.7
20260508034109 56 305 0.9 1.7 0.00 0.00 0.00 91 1014.7
20260508033941 56 304 0.9 2.6 0.00 0.00 0.00 91 1014.6
20260508033751 56 305 0.9 2.6 0.00 0.00 0.00 91 1014.6
20260508033706 56 305 0.9 2.6 0.00 0.00 0.00 91 1014.6
20260508033528 56 305 0.9 2.6 0.00 0.00 0.00 92 1014.5
20260508033331 56 317 0.9 2.6 0.00 0.00 0.00 92 1014.5
20260508032919 56 280 0.9 2.6 0.00 0.00 0.00 92 1014.5
20260508032559 56 315 0.9 2.6 0.00 0.00 0.00 92 1014.5
20260508032218 56 298 0.9 2.6 0.00 0.00 0.00 92 1014.5
20260508032143 56 303 0.9 2.6 0.00 0.00 0.00 92 1014.5
20260508031847 56 309 0.9 2.6 0.00 0.00 0.00 91 1014.5
20260508031550 56 292 1.7 2.6 0.00 0.00 0.00 91 1014.5
20260508031437 56 311 1.7 2.6 0.00 0.00 0.00 91 1014.4
20260508031335 56 309 1.7 2.6 0.00 0.00 0.00 91 1014.4
20260508031128 56 309 1.7 2.6 0.00 0.00 0.00 91 1014.4
20260508030839 56 309 1.7 2.6 0.00 0.00 0.00 91 1014.4
20260508030648 56 304 1.7 2.6 0.00 0.00 0.00 91 1014.4
20260508030451 56 309 1.7 3.5 0.00 0.00 0.00 91 1014.5
20260508030349 56 310 1.7 3.5 0.00 0.00 0.00 91 1014.5
20260508030157 56 312 0.9 3.5 0.00 0.00 0.00 91 1014.5
20260508025856 56 317 0.9 3.5 0.00 0.00 0.00 91 1014.5
20260508025415 56 324 0.9 3.5 0.00 0.00 0.00 91 1014.5
20260508025215 56 338 0.9 3.5 0.00 0.00 0.00 91 1014.5
20260508024955 56 303 1.7 3.5 0.00 0.00 0.00 91 1014.5
20260508024838 56 344 1.7 3.5 0.00 0.00 0.00 91 1014.5
20260508024641 56 318 1.7 3.5 0.00 0.00 0.00 91 1014.5
20260508024404 56 290 1.7 3.5 0.00 0.00 0.00 91 1014.4
20260508024242 56 327 2.6 4.3 0.00 0.00 0.00 91 1014.4
20260508024222 56 317 2.6 4.3 0.00 0.00 0.00 91 1014.4
20260508023957 56 317 2.6 4.3 0.00 0.00 0.00 91 1014.4
20260508023721 56 327 2.6 4.3 0.00 0.00 0.00 91 1014.4
20260508023635 56 327 2.6 4.3 0.00 0.00 0.00 91 1014.5
20260508023449 56 348 1.7 4.3 0.00 0.00 0.00 91 1014.5
20260508023239 56 328 1.7 4.3 0.00 0.00 0.00 91 1014.4
20260508023119 56 312 1.7 4.3 0.00 0.00 0.00 91 1014.3
20260508023101 56 314 1.7 4.3 0.00 0.00 0.00 91 1014.3
20260508022826 56 307 1.7 3.5 0.00 0.00 0.00 91 1014.3
20260508022544 56 326 1.7 2.6 0.00 0.00 0.00 91 1014.3
20260508022459 56 327 1.7 2.6 0.00 0.00 0.00 91 1014.3
20260508022343 56 303 1.7 2.6 0.00 0.00 0.00 91 1014.2
20260508022146 56 281 1.7 2.6 0.00 0.00 0.00 91 1014.2
20260508022021 56 295 1.7 2.6 0.00 0.00 0.00 91 1014.2
20260508021952 56 295 1.7 2.6 0.00 0.00 0.00 91 1014.2
20260508021656 56 312 1.7 2.6 0.00 0.00 0.00 90 1014.1
20260508021438 56 327 1.7 2.6 0.00 0.00 0.00 90 1014.2
20260508021411 56 333 1.7 2.6 0.00 0.00 0.00 90 1014.2
20260508021248 56 319 1.7 2.6 0.00 0.00 0.00 90 1014.2
20260508021033 57 336 1.7 3.5 0.00 0.00 0.00 90 1014.2
20260508020921 57 336 1.7 3.5 0.00 0.00 0.00 90 1014.2
20260508020751 57 313 1.7 3.5 0.00 0.00 0.00 90 1014.2
20260508020534 57 320 1.7 3.5 0.00 0.00 0.00 90 1014.2
20260508020405 57 309 1.7 3.5 0.00 0.00 0.00 90 1014.2
20260508020353 57 308 1.7 3.5 0.00 0.00 0.00 90 1014.2
20260508020205 57 315 1.7 3.5 0.00 0.00 0.00 90 1014.2
20260508015946 57 309 1.7 3.5 0.00 0.00 0.00 90 1014.2
20260508015847 57 300 1.7 3.5 0.00 0.00 0.00 90 1014.3
20260508015737 57 316 1.7 3.5 0.00 0.00 0.00 90 1014.3
20260508015531 57 318 1.7 3.5 0.00 0.00 0.00 90 1014.2
20260508015458 65 90 0.0 0.0 0.00 0.00 0.00 81 1015.6
20260508015412 65 90 0.9 2.6 0.00 0.00 0.00 81 1015.4
20260508015318 57 299 1.7 3.5 0.00 0.00 0.00 90 1014.2
20260508015257 57 303 1.7 3.5 0.00 0.00 0.00 90 1014.2
20260508015118 57 329 1.7 3.5 0.00 0.00 0.00 90 1014.2
20260508014939 57 298 1.7 3.5 0.00 0.00 0.00 90 1014.2
20260508014847 57 308 0.9 3.5 0.00 0.00 0.00 90 1014.2
20260508014812 57 336 0.9 3.5 0.00 0.00 0.00 90 1014.4
20260508014652 57 303 0.9 3.5 0.00 0.00 0.00 89 1014.4
20260508014530 57 314 0.9 3.5 0.00 0.00 0.00 89 1014.4
20260508014059 57 292 0.9 2.6 0.00 0.00 0.00 92 1014.4
20260508014042 65 78 0.0 2.6 0.00 0.00 0.00 80 1015.4
20260508013902 58 287 0.9 2.6 0.00 0.00 0.00 90 1014.4
20260508013805 58 321 0.9 2.6 0.00 0.00 0.00 90 1014.3
20260508013712 58 292 0.9 2.6 0.00 0.00 0.00 90 1014.3
20260508013543 58 291 0.9 2.6 0.00 0.00 0.00 90 1014.3
20260508013332 58 291 0.9 2.6 0.00 0.00 0.00 90 1014.3
20260508013035 58 295 0.9 2.6 0.00 0.00 0.00 89 1014.3
20260508012922 58 294 1.7 2.6 0.00 0.00 0.00 89 1014.4
20260508012838 58 294 1.7 2.6 0.00 0.00 0.00 89 1014.3
20260508012659 58 310 1.7 3.5 0.00 0.00 0.00 89 1014.3
20260508012529 58 315 1.7 3.5 0.00 0.00 0.00 89 1014.3
20260508012402 58 308 1.7 3.5 0.00 0.00 0.00 89 1014.5
20260508012228 58 305 1.7 3.5 0.00 0.00 0.00 89 1014.5
20260508011806 58 327 1.7 3.5 0.00 0.00 0.00 89 1014.6
20260508011612 58 326 1.7 3.5 0.00 0.00 0.00 89 1014.6
20260508011454 58 313 1.7 3.5 0.00 0.00 0.00 89 1014.7
20260508011445 58 321 1.7 3.5 0.00 0.00 0.00 89 1014.7
20260508011324 58 318 1.7 2.6 0.00 0.00 0.00 89 1014.7
20260508011159 58 304 1.7 2.6 0.00 0.00 0.00 89 1014.7
20260508010805 58 319 1.7 2.6 0.00 0.00 0.00 89 1014.7
20260508010646 58 319 1.7 2.6 0.00 0.00 0.00 89 1014.7
20260508010504 58 325 1.7 2.6 0.00 0.00 0.00 88 1014.7
20260508010329 58 323 1.7 3.5 0.00 0.00 0.00 88 1014.8
20260508010117 58 311 1.7 3.5 0.00 0.00 0.00 88 1014.7
20260508005941 58 319 1.7 3.5 0.00 0.00 0.00 88 1014.7
20260508005829 58 325 1.7 3.5 0.00 0.00 0.00 88 1014.7
20260508005652 58 315 1.7 3.5 0.00 0.00 0.00 88 1014.8
20260508005456 58 298 1.7 3.5 0.00 0.00 0.00 88 1014.8
20260508005447 58 295 1.7 3.5 0.00 0.00 0.00 88 1014.8
20260508005149 59 298 0.9 2.6 0.00 0.00 0.00 88 1014.8
20260508005024 59 293 0.9 2.6 0.00 0.00 0.00 88 1014.8
20260508004941 59 294 0.9 2.6 0.00 0.00 0.00 88 1014.8
20260508004822 59 302 0.9 2.6 0.00 0.00 0.00 88 1014.8
20260508004648 59 288 0.9 2.6 0.00 0.00 0.00 88 1014.8
20260508004524 59 281 0.9 2.6 0.00 0.00 0.00 88 1014.8
20260508004342 59 287 0.9 2.6 0.00 0.00 0.00 88 1014.8
20260508004112 59 295 0.9 2.6 0.00 0.00 0.00 88 1014.8
20260508003716 59 292 0.9 1.7 0.00 0.00 0.00 88 1014.8
20260508003503 59 294 0.0 1.7 0.00 0.00 0.00 88 1014.9
20260508003356 59 292 0.0 1.7 0.00 0.00 0.00 88 1014.9
20260508003342 59 281 0.0 1.7 0.00 0.00 0.00 88 1014.9
20260508003152 59 351 0.0 0.0 0.00 0.00 0.00 88 1014.8
20260508003018 59 350 0.0 0.9 0.00 0.00 0.00 88 1014.8
20260508002913 59 350 0.0 0.9 0.00 0.00 0.00 88 1014.9
20260508002725 59 351 0.0 0.9 0.00 0.00 0.00 88 1014.9
20260508002529 59 351 0.0 1.7 0.00 0.00 0.00 88 1014.8
20260508002320 59 350 0.0 1.7 0.00 0.00 0.00 88 1014.9
20260508002100 59 350 0.9 1.7 0.00 0.00 0.00 88 1014.9
20260508001845 59 351 0.9 1.7 0.00 0.00 0.00 88 1015.0
20260508001755 59 351 0.9 1.7 0.00 0.00 0.00 87 1015.0
20260508001701 59 350 0.9 1.7 0.00 0.00 0.00 87 1014.9
20260508001517 59 333 0.9 2.6 0.00 0.00 0.00 87 1015.1
20260508001341 59 329 0.9 2.6 0.00 0.00 0.00 87 1015.1
20260508001114 59 318 1.7 2.6 0.00 0.00 0.00 87 1015.0
20260508000849 59 323 1.7 2.6 0.00 0.00 0.00 87 1015.0
20260508000814 59 327 1.7 2.6 0.00 0.00 0.00 87 1015.0
20260508000659 59 335 0.9 2.6 0.00 0.00 0.00 87 1015.0
20260508000528 59 330 0.9 2.6 0.00 0.00 0.00 87 1015.0
20260508000405 59 318 0.9 2.6 0.00 0.00 0.00 87 1015.0
20260508000354 59 319 1.7 2.6 0.00 0.00 0.00 87 1015.0
20260508000141 59 317 1.7 3.5 0.00 0.00 0.00 87 1015.1
20260507235954 59 318 1.7 3.5 0.00 0.00 0.00 86 1015.1
20260507235922 59 318 1.7 3.5 0.00 0.00 0.00 86 1015.1
20260507235749 60 317 1.7 3.5 0.00 0.00 0.00 86 1015.1
20260507235605 60 318 1.7 3.5 0.00 0.00 0.00 86 1015.2
20260507235441 60 331 0.9 3.5 0.00 0.00 0.00 86 1015.2
20260507235346 60 307 0.9 3.5 0.00 0.00 0.00 86 1015.2
20260507235146 60 317 0.9 3.5 0.00 0.00 0.00 86 1015.2
20260507235016 60 314 0.9 3.5 0.00 0.00 0.00 86 1015.2
20260507234926 60 287 0.9 3.5 0.00 0.00 0.00 86 1015.2
20260507234805 60 298 0.0 2.6 0.00 0.00 0.00 86 1015.2
20260507234615 60 315 0.0 1.7 0.00 0.00 0.00 86 1015.2
20260507234509 60 315 0.9 1.7 0.00 0.00 0.00 86 1015.2
20260507234438 60 315 0.9 1.7 0.00 0.00 0.00 86 1015.2
20260507234230 60 314 0.9 2.6 0.00 0.00 0.00 86 1015.2
20260507234108 60 314 1.7 2.6 0.00 0.00 0.00 86 1015.2
20260507233648 60 315 0.9 2.6 0.00 0.00 0.00 86 1015.2
20260507233502 60 315 0.9 2.6 0.00 0.00 0.00 86 1015.2
20260507233117 60 284 0.0 2.6 0.00 0.00 0.00 86 1015.2
20260507233028 65 78 0.9 2.6 0.00 0.00 0.00 81 1015.6
20260507232915 60 307 0.0 2.6 0.00 0.00 0.00 86 1015.2
20260507232826 65 123 0.9 2.6 0.00 0.00 0.00 81 1015.6
20260507232717 60 307 0.0 1.7 0.00 0.00 0.00 86 1015.2
20260507232650 60 307 0.0 0.9 0.00 0.00 0.00 86 1015.2
20260507232511 60 307 0.0 0.0 0.00 0.00 0.00 86 1015.2
20260507232439 66 130 0.0 1.7 0.00 0.00 0.00 82 1015.5
20260507232401 67 129 0.9 2.6 0.00 0.00 0.00 81 1015.5
20260507232306 60 307 0.0 0.0 0.00 0.00 0.00 86 1015.3
20260507232227 69 118 0.0 1.7 0.00 0.00 0.00 79 1015.0
20260507232156 69 118 0.9 1.7 0.00 0.00 0.00 79 1015.0
20260507232143 61 307 0.0 0.0 0.00 0.00 0.00 86 1015.3
20260507232131 69 163 0.9 1.7 0.00 0.00 0.00 78 1014.9
20260507232108 60 307 0.0 0.0 0.00 0.00 0.00 86 1015.3
20260507232059 69 163 0.9 1.7 0.00 0.00 0.00 76 1015.1
20260507231915 61 307 0.0 0.0 0.00 0.00 0.00 86 1015.3
20260507231854 70 210 1.7 3.5 0.00 0.00 0.00 72 1014.7
20260507231724 61 307 0.0 0.0 0.00 0.00 0.00 85 1015.3
20260507231654 61 307 0.0 0.0 0.00 0.00 0.00 85 1015.3
20260507231545 61 307 0.0 0.0 0.00 0.00 0.00 85 1015.3
20260507231432 61 307 0.0 0.0 0.00 0.00 0.00 85 1015.4
20260507231107 71 221 1.7 3.5 0.00 0.00 0.00 69 1015.5
20260507231039 61 307 0.0 0.0 0.00 0.00 0.00 85 1015.4
20260507231013 71 268 0.9 1.7 0.00 0.00 0.00 68 1015.2
20260507230942 71 269 0.0 1.7 0.00 0.00 0.00 68 1015.1
20260507230913 71 270 1.7 3.5 0.00 0.00 0.00 68 1015.4
20260507230841 61 307 0.0 0.0 0.00 0.00 0.00 85 1015.4
20260507230821 71 280 2.6 5.2 0.00 0.00 0.00 67 1015.7
20260507230758 72 273 0.9 3.5 0.00 0.00 0.00 68 1015.7
20260507230637 61 307 0.0 0.0 0.00 0.00 0.00 85 1015.3
20260507230616 61 307 0.0 0.0 0.00 0.00 0.00 86 1015.3
20260507230503 72 253 2.6 6.1 0.00 0.00 0.00 69 1015.6
20260507230425 61 307 0.0 0.0 0.00 0.00 0.00 85 1015.4
20260507230218 61 307 0.0 0.0 0.00 0.00 0.00 85 1015.4
20260507230155 69 83 1.7 6.1 0.00 0.00 0.00 73 1015.6
20260507230112 61 307 0.0 0.0 0.00 0.00 0.00 85 1015.4
20260507230009 61 307 0.0 0.0 0.00 0.00 0.00 85 1015.3
20260507225948 68 80 2.6 9.6 0.00 0.00 0.00 74 1016.0
20260507225852 67 49 0.0 1.7 0.00 0.00 0.00 83 1016.7
20260507225805 61 307 0.0 0.0 0.00 0.00 0.00 85 1015.4
20260507225746 66 5 0.0 1.7 0.00 0.00 0.00 82 1016.7
20260507225648 69 344 2.6 4.3 0.00 0.00 0.00 75 1017.2
20260507225606 61 307 0.0 0.9 0.00 0.00 0.00 85 1015.4
20260507225351 61 307 0.0 0.9 0.00 0.00 0.00 85 1015.5
20260507225208 61 307 0.0 0.9 0.00 0.00 0.00 85 1015.5
20260507225136 61 307 0.0 0.9 0.00 0.00 0.00 85 1015.5
20260507225034 61 307 0.0 0.9 0.00 0.00 0.00 85 1015.5
20260507224918 61 307 0.0 0.9 0.00 0.00 0.00 85 1015.5
20260507224750 61 307 0.0 0.0 0.00 0.00 0.00 85 1015.5
20260507224333 70 297 0.9 3.5 0.00 0.00 0.00 69 1017.0
20260507224320 61 307 0.0 0.9 0.00 0.00 0.00 85 1015.6
20260507224118 61 307 0.0 0.9 0.00 0.00 0.00 85 1015.6
20260507224054 61 307 0.0 0.9 0.00 0.00 0.00 85 1015.6
20260507223906 61 307 0.0 0.9 0.00 0.00 0.00 85 1015.7
20260507223700 62 307 0.0 1.7 0.00 0.00 0.00 85 1015.7
20260507223555 62 307 0.9 1.7 0.00 0.00 0.00 85 1015.8
20260507223456 62 307 0.9 1.7 0.00 0.00 0.00 85 1015.8
20260507223422 68 57 0.0 2.6 0.00 0.00 0.00 75 1015.0
20260507223350 68 345 0.9 3.5 0.00 0.00 0.00 75 1015.0
20260507223332 67 28 0.9 3.5 0.00 0.00 0.00 78 1015.3
20260507223253 62 307 0.9 1.7 0.00 0.00 0.00 85 1015.8
20260507223115 62 307 0.9 1.7 0.00 0.00 0.00 85 1015.8
20260507222956 62 307 0.9 1.7 0.00 0.00 0.00 85 1015.8
20260507222848 62 307 0.9 1.7 0.00 0.00 0.00 85 1015.8
20260507222441 62 307 0.0 1.7 0.00 0.00 0.00 85 1015.8
20260507222316 64 218 0.9 2.6 0.00 0.00 0.00 87 1015.0
20260507222236 62 307 0.0 1.7 0.00 0.00 0.00 85 1015.8
20260507222224 62 178 0.9 2.6 0.00 0.00 0.00 89 1015.1
20260507222047 62 308 0.0 0.9 0.00 0.00 0.00 85 1015.8
20260507222033 62 307 0.0 0.9 0.00 0.00 0.00 85 1015.8
20260507221841 62 307 0.0 0.0 0.00 0.00 0.00 85 1015.8
20260507221828 56 309 0.0 0.0 0.00 0.00 0.00 90 1014.9
20260507221816 56 307 0.0 0.0 0.00 0.00 0.00 90 1014.9
20260507221752 56 308 0.0 0.0 0.00 0.00 0.00 90 1014.9
20260507221717 56 309 0.0 0.0 0.00 0.00 0.00 90 1014.8
20260507221608 62 307 0.0 0.0 0.00 0.00 0.00 85 1015.8
20260507221534 62 307 0.0 0.0 0.00 0.00 0.00 85 1015.8
20260507221411 62 307 0.0 0.0 0.00 0.00 0.00 85 1015.8
20260507221237 62 307 0.0 0.0 0.00 0.00 0.00 84 1015.8
20260507221140 62 307 0.0 0.0 0.00 0.00 0.00 84 1015.8
20260507221113 62 307 0.0 0.0 0.00 0.00 0.00 84 1015.8
20260507220945 62 307 0.0 0.0 0.00 0.00 0.00 85 1015.8
20260507220818 62 307 0.0 0.0 0.00 0.00 0.00 84 1015.8
20260507220436 62 307 0.0 0.0 0.00 0.00 0.00 84 1015.7
20260507220327 62 307 0.0 0.0 0.00 0.00 0.00 84 1015.8
20260507215937 62 307 0.0 0.0 0.00 0.00 0.00 84 1015.7
20260507215818 54 308 0.9 1.7 0.00 0.00 0.00 89 1014.7
20260507215737 62 307 0.0 0.0 0.00 0.00 0.00 84 1015.7
20260507215639 54 324 1.7 2.6 0.00 0.00 0.00 89 1014.7
20260507215529 62 307 0.0 0.0 0.00 0.00 0.00 84 1015.7
20260507215326 62 307 0.0 0.0 0.00 0.00 0.00 84 1015.7
20260507215255 54 319 0.9 1.7 0.00 0.00 0.00 92 1014.2
20260507215115 62 307 0.0 0.0 0.00 0.00 0.00 84 1015.7
20260507215050 56 311 3.5 6.1 0.00 0.00 0.00 90 1013.9
20260507215040 56 331 3.5 7.0 0.00 0.00 0.00 90 1013.9
20260507215021 62 307 0.0 0.0 0.00 0.00 0.00 84 1015.7
20260507215010 56 11 4.3 7.8 0.00 0.00 0.00 90 1013.9
20260507214907 62 307 0.0 0.0 0.00 0.00 0.00 84 1015.7
20260507214818 56 329 2.6 5.2 0.00 0.00 0.00 88 1013.7
20260507214748 57 275 1.7 2.6 0.00 0.00 0.00 88 1013.6
20260507214739 58 309 1.7 2.6 0.00 0.00 0.00 88 1013.5
20260507214712 62 307 0.0 0.0 0.00 0.00 0.00 84 1015.7
20260507214536 62 307 0.0 0.0 0.00 0.00 0.00 84 1015.7
20260507214408 62 307 0.0 0.0 0.00 0.00 0.00 84 1015.7
20260507214249 62 307 0.0 0.0 0.00 0.00 0.00 84 1015.7
20260507214213 62 307 0.0 0.0 0.00 0.00 0.00 84 1015.7
20260507214113 62 307 0.0 0.0 0.00 0.00 0.00 84 1015.7
20260507213750 57 323 0.9 2.6 0.00 0.00 0.00 88 1013.9
20260507213701 62 307 0.0 0.0 0.00 0.00 0.00 84 1015.7
20260507213523 62 307 0.0 0.0 0.00 0.00 0.00 84 1015.7
20260507213512 62 307 0.0 0.0 0.00 0.00 0.00 84 1015.7
20260507213336 63 307 0.0 0.0 0.00 0.00 0.00 84 1015.6
20260507213154 63 307 0.0 0.0 0.00 0.00 0.00 84 1015.7
20260507213058 63 307 0.0 0.0 0.00 0.00 0.00 83 1015.7
20260507212653 60 315 0.9 2.6 0.00 0.00 0.00 85 1014.0
20260507212641 63 307 0.0 0.0 0.00 0.00 0.00 84 1015.8
20260507212519 63 307 0.0 0.0 0.00 0.00 0.00 83 1015.7
20260507212459 63 308 0.0 0.0 0.00 0.00 0.00 83 1015.7
20260507212324 63 307 0.0 0.0 0.00 0.00 0.00 83 1015.7
20260507212155 63 307 0.0 1.7 0.00 0.00 0.00 83 1015.7
20260507212101 63 307 0.0 1.7 0.00 0.00 0.00 83 1015.7
20260507211910 63 307 0.9 1.7 0.00 0.00 0.00 83 1015.7
20260507211754 63 307 0.9 1.7 0.00 0.00 0.00 83 1015.7
20260507211711 63 307 0.9 1.7 0.00 0.00 0.00 83 1015.7
20260507211521 63 307 0.9 1.7 0.00 0.00 0.00 83 1015.8
20260507211412 63 307 0.0 1.7 0.00 0.00 0.00 83 1015.8
20260507210929 63 307 0.0 1.7 0.00 0.00 0.00 83 1015.7
20260507210723 63 309 0.0 1.7 0.00 0.00 0.00 82 1015.7
20260507210637 63 309 0.0 0.9 0.00 0.00 0.00 83 1015.7
20260507210550 63 309 0.0 0.9 0.00 0.00 0.00 82 1015.7
20260507210421 63 309 0.0 0.9 0.00 0.00 0.00 82 1015.6
20260507210201 63 309 0.0 0.9 0.00 0.00 0.00 82 1015.6
20260507205933 61 315 0.9 2.6 0.00 0.00 0.00 84 1014.0
20260507205915 61 315 0.9 2.6 0.00 0.00 0.00 84 1014.0
20260507205743 64 309 0.0 0.9 0.00 0.00 0.00 82 1015.6
20260507205546 64 309 0.0 1.7 0.00 0.00 0.00 82 1015.6
20260507205505 64 309 0.0 2.6 0.00 0.00 0.00 82 1015.6
20260507205416 64 309 0.9 2.6 0.00 0.00 0.00 82 1015.7
20260507205317 62 315 0.9 2.6 0.00 0.00 0.00 84 1014.1
20260507205137 64 309 0.9 2.6 0.00 0.00 0.00 81 1015.6
20260507205012 64 309 0.9 2.6 0.00 0.00 0.00 82 1015.6
20260507204925 64 309 0.9 2.6 0.00 0.00 0.00 82 1015.6
20260507204736 64 309 0.9 2.6 0.00 0.00 0.00 81 1015.7
20260507204607 64 309 0.9 2.6 0.00 0.00 0.00 81 1015.6
20260507204542 64 309 0.9 1.7 0.00 0.00 0.00 81 1015.6
20260507204418 64 309 0.9 2.6 0.00 0.00 0.00 81 1015.7
20260507204254 64 306 1.7 2.6 0.00 0.00 0.00 81 1015.6
20260507204143 64 294 0.9 2.6 0.00 0.00 0.00 81 1015.7
20260507204119 64 311 0.9 2.6 0.00 0.00 0.00 81 1015.7
20260507203927 64 281 0.9 2.6 0.00 0.00 0.00 81 1015.7
20260507203754 64 312 0.9 2.6 0.00 0.00 0.00 81 1015.7
20260507203430 65 275 0.0 2.6 0.00 0.00 0.00 81 1015.7
20260507203244 65 306 0.0 1.7 0.00 0.00 0.00 81 1015.7
20260507203128 65 90 0.0 0.0 0.00 0.00 0.00 81 1015.6
20260507203048 65 90 0.0 0.0 0.00 0.00 0.00 81 1015.6
20260507202915 65 90 0.0 0.0 0.00 0.00 0.00 81 1015.6
20260507202743 65 90 0.0 0.0 0.00 0.00 0.00 81 1015.6
20260507202612 65 90 0.0 0.0 0.00 0.00 0.00 81 1015.5
20260507202451 65 90 0.0 0.0 0.00 0.00 0.00 81 1015.5
20260507202053 65 90 0.0 0.0 0.00 0.00 0.00 81 1015.6
20260507201939 65 90 0.0 0.9 0.00 0.00 0.00 81 1015.5
20260507201759 65 90 0.0 0.9 0.00 0.00 0.00 81 1015.5
20260507201645 65 90 0.0 2.6 0.00 0.00 0.00 81 1015.5
20260507201509 65 90 0.0 2.6 0.00 0.00 0.00 81 1015.4
20260507201137 65 90 0.9 2.6 0.00 0.00 0.00 81 1015.4
20260507201014 65 90 0.9 2.6 0.00 0.00 0.00 81 1015.4
20260507200848 65 90 0.9 2.6 0.00 0.00 0.00 80 1015.5
20260507200727 65 91 0.9 2.6 0.00 0.00 0.00 80 1015.5
20260507200541 65 90 0.0 2.6 0.00 0.00 0.00 80 1015.5
20260507200202 65 78 0.0 1.7 0.00 0.00 0.00 81 1015.4
20260507200007 65 78 0.0 1.7 0.00 0.00 0.00 81 1015.4
20260507195846 65 78 0.9 2.6 0.00 0.00 0.00 81 1015.5
20260507195831 65 78 0.9 2.6 0.00 0.00 0.00 81 1015.5
20260507195639 65 78 0.9 2.6 0.00 0.00 0.00 81 1015.5
20260507195447 65 78 0.9 2.6 0.00 0.00 0.00 81 1015.6
20260507195036 65 78 0.9 2.6 0.00 0.00 0.00 81 1015.5
20260507194911 65 89 0.9 2.6 0.00 0.00 0.00 81 1015.6
20260507194432 65 129 0.9 2.6 0.00 0.00 0.00 81 1015.6
20260507194233 66 129 0.0 1.7 0.00 0.00 0.00 81 1015.6
20260507194047 66 130 0.0 1.7 0.00 0.00 0.00 81 1015.5
20260507194022 66 129 0.0 0.9 0.00 0.00 0.00 81 1015.5
20260507193859 66 129 0.0 0.9 0.00 0.00 0.00 81 1015.6
20260507193617 66 129 0.0 0.9 0.00 0.00 0.00 81 1015.6
20260507193530 66 129 0.0 0.9 0.00 0.00 0.00 81 1015.6
20260507193436 66 129 0.0 1.7 0.00 0.00 0.00 81 1015.6
20260507193258 66 129 0.0 1.7 0.00 0.00 0.00 82 1015.5
20260507193114 66 129 0.0 1.7 0.00 0.00 0.00 82 1015.5
20260507192900 66 129 0.0 1.7 0.00 0.00 0.00 82 1015.5
20260507192736 66 129 0.0 1.7 0.00 0.00 0.00 82 1015.5
20260507192636 66 129 0.0 1.7 0.00 0.00 0.00 82 1015.5
20260507192533 66 129 0.0 1.7 0.00 0.00 0.00 82 1015.5
20260507192357 66 129 0.0 1.7 0.00 0.00 0.00 82 1015.5
20260507192005 66 129 0.0 1.7 0.00 0.00 0.00 82 1015.5
20260507191843 66 130 0.9 1.7 0.00 0.00 0.00 82 1015.5
20260507191641 66 130 0.9 1.7 0.00 0.00 0.00 82 1015.5
20260507191459 66 129 0.9 1.7 0.00 0.00 0.00 82 1015.5
20260507191352 66 129 0.9 1.7 0.00 0.00 0.00 82 1015.5
20260507191219 67 129 0.9 2.6 0.00 0.00 0.00 82 1015.5
20260507191043 67 129 0.9 2.6 0.00 0.00 0.00 82 1015.5
20260507191000 67 130 0.9 2.6 0.00 0.00 0.00 82 1015.5
20260507190832 67 129 0.9 2.6 0.00 0.00 0.00 82 1015.5
20260507190648 67 129 0.9 2.6 0.00 0.00 0.00 81 1015.5
20260507190224 67 129 0.9 2.6 0.00 0.00 0.00 81 1015.5
20260507190013 67 129 0.0 1.7 0.00 0.00 0.00 81 1015.5
20260507185909 63 315 0.0 1.7 0.00 0.00 0.00 84 1014.1
20260507185817 67 129 0.0 1.7 0.00 0.00 0.00 81 1015.6
20260507185635 67 129 0.0 1.7 0.00 0.00 0.00 81 1015.6
20260507185357 67 129 0.0 1.7 0.00 0.00 0.00 81 1015.6
20260507185232 67 129 0.0 1.7 0.00 0.00 0.00 81 1015.6
20260507185118 67 130 0.0 1.7 0.00 0.00 0.00 81 1015.5
20260507185018 67 129 0.0 1.7 0.00 0.00 0.00 81 1015.5
20260507184911 67 130 0.0 1.7 0.00 0.00 0.00 81 1015.4
20260507184557 67 129 0.0 1.7 0.00 0.00 0.00 81 1015.4
20260507184355 67 129 0.0 1.7 0.00 0.00 0.00 81 1015.4
20260507184158 67 129 0.0 1.7 0.00 0.00 0.00 81 1015.4
20260507183945 67 129 0.0 1.7 0.00 0.00 0.00 81 1015.3
20260507183828 67 129 0.0 1.7 0.00 0.00 0.00 81 1015.3
20260507183740 67 129 0.0 2.6 0.00 0.00 0.00 81 1015.3
20260507183521 67 129 0.9 2.6 0.00 0.00 0.00 81 1015.3
20260507183426 64 315 0.0 0.9 0.00 0.00 0.00 83 1014.2
20260507183324 68 129 0.9 2.6 0.00 0.00 0.00 81 1015.3
20260507183120 68 129 0.9 2.6 0.00 0.00 0.00 81 1015.2
20260507182924 68 129 0.9 2.6 0.00 0.00 0.00 81 1015.2
20260507182833 68 114 0.9 2.6 0.00 0.00 0.00 81 1015.2
20260507182729 68 101 0.9 2.6 0.00 0.00 0.00 81 1015.2
20260507182542 68 106 0.0 1.7 0.00 0.00 0.00 81 1015.2
20260507182425 68 107 0.0 1.7 0.00 0.00 0.00 81 1015.2
20260507182353 68 106 0.0 1.7 0.00 0.00 0.00 81 1015.2
20260507182213 68 107 0.0 1.7 0.00 0.00 0.00 80 1015.2
20260507182040 68 84 0.0 1.7 0.00 0.00 0.00 80 1015.2
20260507182003 68 119 0.0 0.9 0.00 0.00 0.00 80 1015.2
20260507181917 68 119 0.0 0.9 0.00 0.00 0.00 80 1015.2
20260507181737 68 119 0.0 0.0 0.00 0.00 0.00 80 1015.2
20260507181617 68 119 0.0 0.0 0.00 0.00 0.00 80 1015.2
20260507181603 68 118 0.0 0.0 0.00 0.00 0.00 80 1015.2
20260507181424 68 119 0.0 1.7 0.00 0.00 0.00 79 1015.2
20260507181258 69 118 0.0 1.7 0.00 0.00 0.00 80 1015.1
20260507180927 69 118 0.0 1.7 0.00 0.00 0.00 79 1015.1
20260507180748 69 119 0.0 1.7 0.00 0.00 0.00 79 1015.2
20260507180414 69 119 0.9 1.7 0.00 0.00 0.00 79 1015.0
20260507180230 69 118 0.9 1.7 0.00 0.00 0.00 78 1015.0
20260507175659 69 163 0.9 1.7 0.00 0.00 0.00 78 1015.0
20260507175518 69 163 0.9 1.7 0.00 0.00 0.00 77 1015.0
20260507175414 69 163 0.9 1.7 0.00 0.00 0.00 77 1015.0
20260507175351 69 163 0.9 1.7 0.00 0.00 0.00 77 1015.0
20260507175217 69 163 0.9 1.7 0.00 0.00 0.00 77 1015.2
20260507175050 69 163 0.9 1.7 0.00 0.00 0.00 76 1015.1
20260507174642 69 163 0.9 1.7 0.00 0.00 0.00 76 1015.1
20260507174435 69 163 0.9 3.5 0.00 0.00 0.00 75 1015.1
20260507174312 69 163 0.9 3.5 0.00 0.00 0.00 75 1015.1
20260507174239 70 163 0.0 3.5 0.00 0.00 0.00 75 1015.1
20260507174033 70 163 0.9 3.5 0.00 0.00 0.00 75 1015.1
20260507173841 70 163 0.9 3.5 0.00 0.00 0.00 75 1015.2
20260507173653 70 163 0.9 3.5 0.00 0.00 0.00 75 1015.2
20260507173450 70 178 0.9 3.5 0.00 0.00 0.00 75 1015.3
20260507173409 70 167 1.7 3.5 0.00 0.00 0.00 74 1015.2
20260507173303 70 173 1.7 3.5 0.00 0.00 0.00 74 1015.2
20260507173140 70 213 1.7 3.5 0.00 0.00 0.00 74 1014.9
20260507172959 70 224 1.7 3.5 0.00 0.00 0.00 73 1014.9
20260507172940 70 231 1.7 3.5 0.00 0.00 0.00 73 1014.9
20260507172819 70 216 1.7 3.5 0.00 0.00 0.00 73 1014.8
20260507172604 70 237 1.7 3.5 0.00 0.00 0.00 72 1014.7
20260507172153 70 202 0.9 2.6 0.00 0.00 0.00 72 1014.5
20260507172002 70 136 0.9 2.6 0.00 0.00 0.00 71 1014.4
20260507171819 70 103 0.9 2.6 0.00 0.00 0.00 71 1014.5
20260507171754 70 115 0.9 2.6 0.00 0.00 0.00 70 1014.5
20260507171554 70 86 0.9 2.6 0.00 0.00 0.00 70 1014.5
20260507171339 70 92 0.0 2.6 0.00 0.00 0.00 70 1014.5
20260507171310 71 87 0.0 1.7 0.00 0.00 0.00 70 1014.6
20260507171203 71 217 0.0 0.9 0.00 0.00 0.00 69 1014.6
20260507170937 71 217 0.0 0.9 0.00 0.00 0.00 69 1014.7
20260507170805 71 217 0.0 0.0 0.00 0.00 0.00 69 1014.7
20260507170735 71 217 0.0 0.9 0.00 0.00 0.00 69 1014.7
20260507170600 71 217 0.0 0.9 0.00 0.00 0.00 69 1014.8
20260507170356 71 217 0.0 0.9 0.00 0.00 0.00 69 1014.9
20260507170326 71 217 0.0 0.9 0.00 0.00 0.00 69 1014.9
20260507170139 71 217 0.0 0.9 0.00 0.00 0.00 69 1015.0
20260507170006 71 217 0.0 0.9 0.00 0.00 0.00 69 1015.1
20260507165743 71 217 0.0 0.9 0.00 0.00 0.00 69 1015.0
20260507165625 71 217 0.0 0.9 0.00 0.00 0.00 69 1015.0
20260507165421 71 217 0.0 0.0 0.00 0.00 0.00 68 1015.1
20260507165328 71 217 0.0 0.0 0.00 0.00 0.00 68 1015.1
20260507165232 71 217 0.0 0.0 0.00 0.00 0.00 69 1015.1
20260507165041 71 217 0.0 0.0 0.00 0.00 0.00 69 1015.1
20260507164920 71 217 0.0 0.0 0.00 0.00 0.00 69 1015.1
20260507164736 71 217 0.0 0.0 0.00 0.00 0.00 68 1015.2
20260507164323 71 240 0.0 0.0 0.00 0.00 0.00 68 1015.1
20260507164255 71 240 0.0 0.0 0.00 0.00 0.00 68 1015.1
20260507164106 71 240 0.0 0.0 0.00 0.00 0.00 68 1015.1
20260507163904 71 240 0.0 0.0 0.00 0.00 0.00 68 1015.1
20260507163757 67 192 0.0 1.7 0.00 0.00 0.00 78 1013.1
20260507163736 71 240 0.0 0.0 0.00 0.00 0.00 68 1015.0
20260507163707 71 240 0.0 0.0 0.00 0.00 0.00 68 1015.0
20260507163516 71 240 0.0 0.9 0.00 0.00 0.00 68 1015.0
20260507163348 67 168 0.9 4.3 0.00 0.00 0.00 77 1012.7
20260507163310 71 240 0.0 0.9 0.00 0.00 0.00 68 1015.0
20260507163238 71 240 0.0 0.9 0.00 0.00 0.00 68 1015.0
20260507163124 71 240 0.0 0.9 0.00 0.00 0.00 68 1015.0
20260507162928 71 240 0.0 1.7 0.00 0.00 0.00 68 1015.1
20260507162847 71 240 0.0 2.6 0.00 0.00 0.00 68 1015.2
20260507162810 71 240 0.0 2.6 0.00 0.00 0.00 68 1015.2
20260507162646 71 240 0.9 2.6 0.00 0.00 0.00 68 1015.1
20260507162246 71 240 0.9 2.6 0.00 0.00 0.00 68 1015.0
20260507162123 71 240 0.9 2.6 0.00 0.00 0.00 68 1015.2
20260507161937 71 240 0.9 2.6 0.00 0.00 0.00 68 1015.3
20260507161903 71 240 0.9 3.5 0.00 0.00 0.00 68 1015.3
20260507161825 71 240 0.9 3.5 0.00 0.00 0.00 69 1015.3
20260507161705 71 240 1.7 3.5 0.00 0.00 0.00 69 1015.4
20260507161501 71 240 1.7 3.5 0.00 0.00 0.00 69 1015.4
20260507161453 71 240 1.7 3.5 0.00 0.00 0.00 69 1015.4
20260507161325 71 226 1.7 3.5 0.00 0.00 0.00 69 1015.4
20260507161126 71 261 1.7 3.5 0.00 0.00 0.00 69 1015.5
20260507160746 71 236 1.7 3.5 0.00 0.00 0.00 69 1015.5
20260507160609 71 222 0.9 3.5 0.00 0.00 0.00 68 1015.5
20260507160452 71 235 0.9 2.6 0.00 0.00 0.00 68 1015.3
20260507160439 71 220 0.9 2.6 0.00 0.00 0.00 68 1015.3
20260507160316 71 269 0.9 1.7 0.00 0.00 0.00 68 1015.3
20260507160143 71 268 0.9 1.7 0.00 0.00 0.00 68 1015.2
20260507155805 71 269 0.0 1.7 0.00 0.00 0.00 68 1015.2
20260507155637 71 269 0.9 1.7 0.00 0.00 0.00 68 1015.2
20260507155232 71 268 0.0 1.7 0.00 0.00 0.00 68 1015.1
20260507155045 71 336 0.9 1.7 0.00 0.00 0.00 68 1015.0
20260507154917 71 336 0.9 2.6 0.00 0.00 0.00 68 1015.0
20260507154841 71 346 0.9 2.6 0.00 0.00 0.00 68 1014.9
20260507154735 71 343 0.9 2.6 0.00 0.00 0.00 68 1014.9
20260507154545 71 321 0.9 2.6 0.00 0.00 0.00 68 1015.1
20260507154442 71 309 1.7 2.6 0.00 0.00 0.00 68 1015.2
20260507154422 71 309 1.7 2.6 0.00 0.00 0.00 68 1015.2
20260507154210 71 350 1.7 2.6 0.00 0.00 0.00 68 1015.4
20260507154031 71 269 1.7 3.5 0.00 0.00 0.00 68 1015.4
20260507153653 71 267 1.7 3.5 0.00 0.00 0.00 68 1015.3
20260507153504 71 333 1.7 3.5 0.00 0.00 0.00 67 1015.2
20260507153357 71 346 1.7 5.2 0.00 0.00 0.00 67 1015.4
20260507153315 71 319 1.7 5.2 0.00 0.00 0.00 67 1015.4
20260507153148 71 334 2.6 5.2 0.00 0.00 0.00 67 1015.5
20260507153000 71 314 1.7 5.2 0.00 0.00 0.00 67 1015.4
20260507152945 71 279 1.7 5.2 0.00 0.00 0.00 67 1015.4
20260507152814 71 323 2.6 5.2 0.00 0.00 0.00 67 1015.5
20260507152616 71 289 2.6 5.2 0.00 0.00 0.00 67 1015.7
20260507152237 71 271 2.6 5.2 0.00 0.00 0.00 67 1015.7
20260507152105 71 283 2.6 5.2 0.00 0.00 0.00 67 1015.7
20260507151940 71 222 2.6 4.3 0.00 0.00 0.00 67 1015.7
20260507151927 71 237 2.6 4.3 0.00 0.00 0.00 67 1015.7
20260507151809 71 230 2.6 4.3 0.00 0.00 0.00 67 1015.7
20260507151619 71 227 2.6 4.3 0.00 0.00 0.00 67 1015.7
20260507151517 71 233 2.6 5.2 0.00 0.00 0.00 67 1015.7
20260507151349 71 215 1.7 5.2 0.00 0.00 0.00 67 1015.8
20260507151200 71 273 1.7 5.2 0.00 0.00 0.00 68 1015.8
20260507150948 71 246 1.7 5.2 0.00 0.00 0.00 68 1015.8
20260507150926 71 241 1.7 5.2 0.00 0.00 0.00 68 1015.8
20260507150750 71 288 1.7 5.2 0.00 0.00 0.00 68 1015.7
20260507150617 72 272 1.7 5.2 0.00 0.00 0.00 68 1015.7
20260507150205 72 273 0.9 3.5 0.00 0.00 0.00 68 1015.7
20260507145901 72 298 1.7 3.5 0.00 0.00 0.00 68 1015.6
20260507145730 72 348 1.7 3.5 0.00 0.00 0.00 68 1015.6
20260507145701 72 290 1.7 3.5 0.00 0.00 0.00 68 1015.6
20260507145451 72 306 1.7 3.5 0.00 0.00 0.00 68 1015.4
20260507145308 72 323 1.7 3.5 0.00 0.00 0.00 68 1015.5
20260507145230 72 305 1.7 3.5 0.00 0.00 0.00 68 1015.6
20260507145123 72 237 1.7 3.5 0.00 0.00 0.00 68 1015.6
20260507144919 72 238 1.7 3.5 0.00 0.00 0.00 68 1015.7
20260507144715 72 272 1.7 3.5 0.00 0.00 0.00 68 1015.7
20260507144635 72 291 1.7 3.5 0.00 0.00 0.00 68 1015.6
20260507144441 72 290 0.9 3.5 0.00 0.00 0.00 68 1015.6
20260507144245 72 290 1.7 3.5 0.00 0.00 0.00 68 1015.7
20260507144221 72 290 1.7 4.3 0.00 0.00 0.00 68 1015.7
20260507144051 72 288 1.7 4.3 0.00 0.00 0.00 69 1015.7
20260507143851 72 248 1.7 4.3 0.00 0.00 0.00 69 1015.7
20260507143726 72 254 1.7 4.3 0.00 0.00 0.00 69 1015.7
20260507143649 72 254 2.6 5.2 0.00 0.00 0.00 69 1015.7
20260507143520 72 219 2.6 5.2 0.00 0.00 0.00 68 1015.7
20260507143348 72 211 2.6 5.2 0.00 0.00 0.00 69 1015.7
20260507143326 72 259 2.6 5.2 0.00 0.00 0.00 69 1015.7
20260507143135 72 327 2.6 5.2 0.00 0.00 0.00 68 1015.7
20260507142956 72 286 2.6 5.2 0.00 0.00 0.00 68 1015.7
20260507142829 72 279 2.6 5.2 0.00 0.00 0.00 68 1015.7
20260507142803 72 341 2.6 5.2 0.00 0.00 0.00 69 1015.6
20260507142637 72 263 2.6 5.2 0.00 0.00 0.00 69 1015.6
20260507142446 72 300 1.7 3.5 0.00 0.00 0.00 69 1015.6
20260507142426 72 278 1.7 3.5 0.00 0.00 0.00 69 1015.6
20260507142313 72 319 2.6 3.5 0.00 0.00 0.00 69 1015.6
20260507142146 72 317 2.6 6.1 0.00 0.00 0.00 69 1015.6
20260507142055 72 336 2.6 6.1 0.00 0.00 0.00 69 1015.7
20260507141959 72 275 2.6 6.1 0.00 0.00 0.00 69 1015.6
20260507141743 72 310 2.6 6.1 0.00 0.00 0.00 69 1015.6
20260507141540 72 253 2.6 6.1 0.00 0.00 0.00 69 1015.6
20260507141116 72 288 2.6 6.1 0.00 0.00 0.00 69 1015.6
20260507140924 72 338 2.6 6.1 0.00 0.00 0.00 69 1015.6
20260507140824 71 267 2.6 6.1 0.00 0.00 0.00 69 1015.6
20260507140647 71 281 2.6 7.0 0.00 0.00 0.00 69 1015.6
20260507140503 71 263 2.6 7.0 0.00 0.00 0.00 69 1015.7
20260507140159 71 268 2.6 7.0 0.00 0.00 0.00 68 1015.6
20260507140151 71 298 2.6 7.0 0.00 0.00 0.00 68 1015.6
20260507135954 71 298 2.6 7.0 0.00 0.00 0.00 68 1015.6
20260507135803 71 265 2.6 7.0 0.00 0.00 0.00 69 1015.5
20260507135723 71 313 2.6 7.0 0.00 0.00 0.00 70 1015.5
20260507135632 71 283 2.6 5.2 0.00 0.00 0.00 70 1015.5
20260507135425 71 273 2.6 5.2 0.00 0.00 0.00 70 1015.6
20260507135149 71 322 2.6 5.2 0.00 0.00 0.00 70 1015.6
20260507135004 71 325 2.6 5.2 0.00 0.00 0.00 71 1015.6
20260507134830 71 0 2.6 5.2 0.00 0.00 0.00 71 1015.6
20260507134746 71 19 2.6 5.2 0.00 0.00 0.00 71 1015.6
20260507134656 70 350 2.6 6.1 0.00 0.00 0.00 71 1015.6
20260507134500 70 331 3.5 7.0 0.00 0.00 0.00 72 1015.6
20260507134243 70 331 3.5 7.0 0.00 0.00 0.00 72 1015.6
20260507134234 70 341 3.5 7.0 0.00 0.00 0.00 72 1015.6
20260507134010 70 317 2.6 7.0 0.00 0.00 0.00 72 1015.5
20260507133759 70 336 2.6 7.0 0.00 0.00 0.00 72 1015.5
20260507133704 70 307 2.6 7.0 0.00 0.00 0.00 72 1015.6
20260507133537 70 15 2.6 7.0 0.00 0.00 0.00 73 1015.6
20260507133431 69 173 1.7 3.5 0.00 0.00 0.00 73 1012.4
20260507133340 70 336 1.7 6.1 0.00 0.00 0.00 73 1015.6
20260507133202 70 22 1.7 6.1 0.00 0.00 0.00 73 1015.6
20260507133001 70 311 1.7 6.1 0.00 0.00 0.00 73 1015.6
20260507132803 70 355 1.7 5.2 0.00 0.00 0.00 73 1015.6
20260507132723 69 25 2.6 5.2 0.00 0.00 0.00 73 1015.6
20260507132624 69 57 2.6 5.2 0.00 0.00 0.00 73 1015.5
20260507132414 69 55 2.6 5.2 0.00 0.00 0.00 73 1015.6
20260507132255 69 36 2.6 5.2 0.00 0.00 0.00 73 1015.5
20260507132230 69 315 2.6 6.1 0.00 0.00 0.00 73 1015.5
20260507132115 69 336 2.6 6.1 0.00 0.00 0.00 73 1015.6
20260507131851 69 69 2.6 6.1 0.00 0.00 0.00 73 1015.5
20260507131826 69 80 2.6 6.1 0.00 0.00 0.00 73 1015.5
20260507131722 69 32 2.6 6.1 0.00 0.00 0.00 73 1015.6
20260507131522 69 96 2.6 6.1 0.00 0.00 0.00 73 1015.6
20260507131109 69 87 1.7 6.1 0.00 0.00 0.00 73 1015.6
20260507130912 69 65 1.7 5.2 0.00 0.00 0.00 73 1015.6
20260507130720 68 72 1.7 5.2 0.00 0.00 0.00 74 1015.8
20260507130648 68 336 1.7 5.2 0.00 0.00 0.00 74 1015.8
20260507130512 68 89 1.7 5.2 0.00 0.00 0.00 74 1015.8
20260507130318 68 40 0.9 5.2 0.00 0.00 0.00 74 1015.7
20260507130141 68 67 0.9 5.2 0.00 0.00 0.00 74 1015.7
20260507130023 71 219 1.7 4.3 0.00 0.00 0.00 70 1012.5
20260507125855 68 128 0.9 4.3 0.00 0.00 0.00 74 1015.8
20260507125716 72 142 2.6 7.0 0.00 0.00 0.00 69 1012.5
20260507125632 68 24 1.7 6.1 0.00 0.00 0.00 74 1015.9
20260507125454 68 71 1.7 6.1 0.00 0.00 0.00 74 1015.8
20260507125317 68 60 1.7 6.1 0.00 0.00 0.00 74 1015.9
20260507125227 68 60 1.7 6.1 0.00 0.00 0.00 74 1015.9
20260507125139 68 87 1.7 6.1 0.00 0.00 0.00 74 1015.9
20260507125017 68 99 2.6 7.0 0.00 0.00 0.00 74 1016.0
20260507124856 68 123 2.6 8.7 0.00 0.00 0.00 74 1016.0
20260507124437 68 129 3.5 9.6 0.00 0.00 0.00 74 1015.9
20260507124313 68 232 3.5 9.6 0.00 0.00 0.00 74 1015.8
20260507124225 68 232 4.3 9.6 0.00 0.00 0.00 74 1015.5
20260507124150 67 65 4.3 9.6 0.00 0.00 0.00 73 1015.6
20260507124024 67 114 4.3 9.6 0.00 0.00 0.00 74 1015.6
20260507123833 67 74 4.3 9.6 0.00 0.00 0.00 74 1015.7
20260507123714 67 84 4.3 9.6 0.00 0.00 0.00 74 1015.9
20260507123515 67 48 4.3 9.6 0.00 0.00 0.00 74 1015.9
20260507123443 67 84 4.3 8.7 0.00 0.00 0.00 75 1016.1
20260507123343 67 40 4.3 8.7 0.00 0.00 0.00 75 1016.1
20260507123220 67 107 3.5 8.7 0.00 0.00 0.00 75 1016.3
20260507123116 67 89 3.5 8.7 0.00 0.00 0.00 76 1016.2
20260507123055 67 98 3.5 8.7 0.00 0.00 0.00 76 1016.2
20260507122850 67 82 2.6 7.8 0.00 0.00 0.00 77 1016.3
20260507122705 67 91 2.6 5.2 0.00 0.00 0.00 78 1016.4
20260507122622 66 67 2.6 5.2 0.00 0.00 0.00 79 1016.4
20260507122456 66 86 2.6 5.2 0.00 0.00 0.00 79 1016.4
20260507122251 66 80 1.7 5.2 0.00 0.00 0.00 80 1016.6
20260507122037 67 85 0.9 5.2 0.00 0.00 0.00 81 1016.4
20260507122020 67 90 0.9 5.2 0.00 0.00 0.00 81 1016.4
20260507121839 67 68 0.9 5.2 0.00 0.00 0.00 82 1016.7
20260507121636 67 113 0.0 1.7 0.00 0.00 0.00 83 1016.7
20260507121157 66 188 0.0 1.7 0.00 0.00 0.00 83 1016.7
20260507120952 66 188 0.0 1.7 0.00 0.00 0.00 82 1016.7
20260507120834 66 92 0.0 0.9 0.00 0.00 0.00 82 1016.7
20260507120819 66 0 0.0 0.9 0.00 0.00 0.00 82 1016.7
20260507120612 66 0 0.0 0.9 0.00 0.00 0.00 82 1016.7
20260507120445 66 5 0.0 1.7 0.00 0.00 0.00 82 1016.7
20260507120014 66 69 0.0 1.7 0.00 0.00 0.00 82 1016.7
20260507115814 66 71 0.9 1.7 0.00 0.00 0.00 81 1016.7
20260507115629 66 71 0.9 1.7 0.00 0.00 0.00 81 1016.7
20260507115559 66 71 0.9 2.6 0.00 0.00 0.00 81 1016.7
20260507115542 73 188 3.5 8.7 0.00 0.00 0.00 66 1012.6
20260507115416 66 24 0.9 3.5 0.00 0.00 0.00 81 1016.8
20260507115221 74 219 2.6 8.7 0.00 0.00 0.00 63 1012.6
20260507115147 66 64 0.9 3.5 0.00 0.00 0.00 81 1016.7
20260507115120 66 355 0.9 3.5 0.00 0.00 0.00 81 1016.7
20260507115050 75 227 3.5 9.6 0.00 0.00 0.00 63 1012.7
20260507114958 66 37 0.9 3.5 0.00 0.00 0.00 80 1016.7
20260507114931 75 168 3.5 7.0 0.00 0.00 0.00 62 1012.6
20260507114859 75 176 4.3 7.0 0.00 0.00 0.00 61 1012.7
20260507114750 66 0 1.7 3.5 0.00 0.00 0.00 80 1016.7
20260507114735 76 210 3.5 8.7 0.00 0.00 0.00 60 1012.7
20260507114718 76 161 4.3 9.6 0.00 0.00 0.00 60 1012.8
20260507114618 66 23 1.7 4.3 0.00 0.00 0.00 80 1016.9
20260507114543 66 18 1.7 4.3 0.00 0.00 0.00 80 1016.9
20260507114451 76 206 5.2 11.3 0.00 0.00 0.00 61 1012.8
20260507114337 66 14 1.7 4.3 0.00 0.00 0.00 80 1017.0
20260507114316 77 202 5.2 12.2 0.00 0.00 0.00 60 1012.8
20260507114109 66 342 2.6 4.3 0.00 0.00 0.00 80 1017.0
20260507113933 66 320 2.6 4.3 0.00 0.00 0.00 80 1017.1
20260507113741 66 323 2.6 7.0 0.00 0.00 0.00 80 1017.1
20260507113636 66 332 3.5 7.0 0.00 0.00 0.00 80 1017.1
20260507113605 66 322 3.5 7.0 0.00 0.00 0.00 80 1017.1
20260507113425 66 346 3.5 7.0 0.00 0.00 0.00 79 1017.2
20260507113251 66 40 3.5 7.0 0.00 0.00 0.00 79 1017.2
20260507113218 66 318 3.5 7.0 0.00 0.00 0.00 79 1017.2
20260507113115 66 0 3.5 7.0 0.00 0.00 0.00 79 1017.4
20260507112735 66 318 3.5 6.1 0.00 0.00 0.00 79 1017.5
20260507112611 66 322 2.6 6.1 0.00 0.00 0.00 79 1017.4
20260507112533 66 282 2.6 6.1 0.00 0.00 0.00 79 1017.4
20260507112337 66 327 2.6 5.2 0.00 0.00 0.00 79 1017.5
20260507112329 79 203 4.3 9.6 0.00 0.00 0.00 54 1013.2
20260507112149 66 327 2.6 5.2 0.00 0.00 0.00 79 1017.4
20260507112114 66 340 2.6 5.2 0.00 0.00 0.00 79 1017.4
20260507111935 67 333 2.6 4.3 0.00 0.00 0.00 79 1017.5
20260507111732 67 304 2.6 4.3 0.00 0.00 0.00 79 1017.5
20260507111607 67 329 2.6 4.3 0.00 0.00 0.00 80 1017.5
20260507111532 67 331 2.6 4.3 0.00 0.00 0.00 80 1017.5
20260507111325 67 310 2.6 4.3 0.00 0.00 0.00 80 1017.5
20260507111218 80 205 2.6 7.8 0.00 0.00 0.00 45 1013.7
20260507111141 67 338 2.6 4.3 0.00 0.00 0.00 79 1017.5
20260507111114 67 337 2.6 4.3 0.00 0.00 0.00 79 1017.5
20260507111021 80 113 3.5 7.8 0.00 0.00 0.00 45 1013.8
20260507110950 79 195 3.5 7.8 0.00 0.00 0.00 46 1013.8
20260507110925 67 334 2.6 4.3 0.00 0.00 0.00 79 1017.5
20260507110731 67 355 1.7 4.3 0.00 0.00 0.00 80 1017.5
20260507110616 67 268 1.7 3.5 0.00 0.00 0.00 79 1017.5
20260507110529 67 329 1.7 3.5 0.00 0.00 0.00 79 1017.5
20260507110342 67 291 1.7 3.5 0.00 0.00 0.00 79 1017.4
20260507110157 67 342 1.7 3.5 0.00 0.00 0.00 79 1017.5
20260507110141 67 295 1.7 3.5 0.00 0.00 0.00 79 1017.5
20260507110022 67 322 1.7 3.5 0.00 0.00 0.00 78 1017.4
20260507105906 67 321 1.7 3.5 0.00 0.00 0.00 78 1017.4
20260507105817 68 273 1.7 3.5 0.00 0.00 0.00 78 1017.3
20260507105741 68 314 1.7 3.5 0.00 0.00 0.00 77 1017.3
20260507105605 68 300 1.7 4.3 0.00 0.00 0.00 77 1017.3
20260507105432 68 296 1.7 5.2 0.00 0.00 0.00 77 1017.3
20260507105422 68 332 2.6 5.2 0.00 0.00 0.00 77 1017.3
20260507105310 68 332 2.6 5.2 0.00 0.00 0.00 76 1017.3
20260507105200 68 332 2.6 5.2 0.00 0.00 0.00 76 1017.3
20260507105122 68 332 2.6 5.2 0.00 0.00 0.00 76 1017.3
20260507105039 68 279 2.6 5.2 0.00 0.00 0.00 76 1017.3
20260507104901 68 323 2.6 5.2 0.00 0.00 0.00 76 1017.2
20260507104723 68 307 2.6 4.3 0.00 0.00 0.00 76 1017.2
20260507104712 68 321 2.6 4.3 0.00 0.00 0.00 76 1017.2
20260507104554 68 319 2.6 4.3 0.00 0.00 0.00 75 1017.2
20260507104435 69 5 2.6 4.3 0.00 0.00 0.00 75 1017.2
20260507104039 69 324 2.6 4.3 0.00 0.00 0.00 75 1017.2
20260507103850 69 325 2.6 4.3 0.00 0.00 0.00 75 1017.3
20260507103727 69 322 2.6 5.2 0.00 0.00 0.00 75 1017.3
20260507103720 69 310 2.6 5.2 0.00 0.00 0.00 75 1017.3
20260507103606 69 335 2.6 5.2 0.00 0.00 0.00 75 1017.3
20260507103436 69 355 2.6 5.2 0.00 0.00 0.00 75 1017.3
20260507103359 69 342 2.6 5.2 0.00 0.00 0.00 74 1017.2
20260507103318 69 317 2.6 5.2 0.00 0.00 0.00 74 1017.2
20260507103137 69 297 2.6 5.2 0.00 0.00 0.00 74 1017.2
20260507102939 69 317 2.6 5.2 0.00 0.00 0.00 73 1017.2
20260507102922 69 284 2.6 5.2 0.00 0.00 0.00 73 1017.2
20260507102754 70 265 2.6 5.2 0.00 0.00 0.00 73 1017.1
20260507102630 70 277 2.6 5.2 0.00 0.00 0.00 72 1017.1
20260507102539 70 301 2.6 5.2 0.00 0.00 0.00 72 1017.1
20260507102448 70 259 2.6 6.1 0.00 0.00 0.00 72 1017.1
20260507102320 70 290 2.6 6.1 0.00 0.00 0.00 71 1017.1
20260507102213 70 284 2.6 6.1 0.00 0.00 0.00 71 1017.1
20260507102156 70 317 2.6 6.1 0.00 0.00 0.00 71 1017.1
20260507102025 70 292 3.5 6.1 0.00 0.00 0.00 71 1017.2
20260507101833 70 308 2.6 6.1 0.00 0.00 0.00 70 1017.2
20260507101730 70 292 2.6 6.1 0.00 0.00 0.00 70 1017.2
20260507101642 70 283 2.6 6.1 0.00 0.00 0.00 70 1017.2
20260507101508 70 325 2.6 6.1 0.00 0.00 0.00 69 1017.2
20260507101342 70 265 2.6 6.1 0.00 0.00 0.00 69 1017.2
20260507101321 70 282 2.6 6.1 0.00 0.00 0.00 69 1017.2
20260507101158 70 323 1.7 4.3 0.00 0.00 0.00 69 1017.2
20260507101023 70 284 1.7 4.3 0.00 0.00 0.00 69 1017.2
20260507100955 70 269 1.7 4.3 0.00 0.00 0.00 69 1017.2
20260507100908 70 286 1.7 4.3 0.00 0.00 0.00 69 1017.2
20260507100733 70 330 1.7 4.3 0.00 0.00 0.00 69 1017.2
20260507100611 70 330 1.7 3.5 0.00 0.00 0.00 69 1017.1
20260507100541 70 311 1.7 3.5 0.00 0.00 0.00 70 1017.1
20260507100331 70 311 1.7 3.5 0.00 0.00 0.00 69 1017.1
20260507100159 70 334 1.7 4.3 0.00 0.00 0.00 69 1017.1
20260507100125 70 333 1.7 4.3 0.00 0.00 0.00 69 1017.1
20260507100011 70 279 1.7 4.3 0.00 0.00 0.00 69 1017.1
20260507095620 70 241 1.7 4.3 0.00 0.00 0.00 69 1017.1
20260507095206 70 221 1.7 4.3 0.00 0.00 0.00 69 1017.1
20260507095029 70 221 1.7 4.3 0.00 0.00 0.00 69 1017.1
20260507094845 70 230 1.7 3.5 0.00 0.00 0.00 69 1017.1
20260507094813 70 272 1.7 3.5 0.00 0.00 0.00 69 1017.1
20260507094714 70 228 0.9 3.5 0.00 0.00 0.00 70 1017.1
20260507094534 70 254 0.9 3.5 0.00 0.00 0.00 70 1017.1
20260507094409 70 244 0.9 3.5 0.00 0.00 0.00 70 1017.0
20260507094355 70 244 0.9 3.5 0.00 0.00 0.00 70 1017.1
20260507094242 70 271 0.9 3.5 0.00 0.00 0.00 70 1017.0
20260507094130 70 296 1.7 3.5 0.00 0.00 0.00 69 1017.0
20260507093738 70 273 0.9 3.5 0.00 0.00 0.00 69 1017.0
20260507093602 70 255 0.9 3.5 0.00 0.00 0.00 69 1016.9
20260507093432 70 255 0.9 3.5 0.00 0.00 0.00 69 1016.7
20260507093341 70 212 0.9 3.5 0.00 0.00 0.00 69 1016.7
20260507093158 70 229 0.9 2.6 0.00 0.00 0.00 69 1016.7
20260507092959 70 229 0.9 3.5 0.00 0.00 0.00 69 1016.6
20260507092933 70 229 0.9 3.5 0.00 0.00 0.00 69 1016.6
20260507092756 70 229 0.9 3.5 0.00 0.00 0.00 70 1016.4
20260507092615 70 229 0.9 3.5 0.00 0.00 0.00 70 1016.3
20260507092504 70 227 0.9 3.5 0.00 0.00 0.00 70 1016.3
20260507092434 70 226 0.9 3.5 0.00 0.00 0.00 70 1016.3
20260507092230 70 219 0.9 3.5 0.00 0.00 0.00 70 1016.3
20260507092058 70 227 0.9 1.7 0.00 0.00 0.00 70 1016.2
20260507092019 70 227 0.9 1.7 0.00 0.00 0.00 70 1016.2
20260507091913 70 227 0.9 1.7 0.00 0.00 0.00 71 1016.2
20260507091732 70 227 0.9 1.7 0.00 0.00 0.00 71 1016.2
20260507091625 70 227 0.0 1.7 0.00 0.00 0.00 71 1016.2
20260507091552 70 227 0.0 1.7 0.00 0.00 0.00 71 1016.2
20260507091425 70 170 0.0 1.7 0.00 0.00 0.00 71 1016.2
20260507091224 70 169 0.0 1.7 0.00 0.00 0.00 72 1016.2
20260507091040 70 169 0.0 1.7 0.00 0.00 0.00 72 1016.0
20260507090853 69 170 0.0 1.7 0.00 0.00 0.00 72 1016.0
20260507090759 69 170 0.0 2.6 0.00 0.00 0.00 72 1016.0
20260507090723 69 169 0.0 2.6 0.00 0.00 0.00 72 1016.0
20260507090546 69 170 0.9 2.6 0.00 0.00 0.00 72 1016.0
20260507090329 69 169 0.9 2.6 0.00 0.00 0.00 72 1016.1
20260507090149 70 169 0.9 2.6 0.00 0.00 0.00 73 1016.1
20260507085956 70 215 0.9 2.6 0.00 0.00 0.00 73 1016.2
20260507085908 70 176 0.9 2.6 0.00 0.00 0.00 73 1016.2
20260507085649 70 169 0.9 2.6 0.00 0.00 0.00 73 1016.2
20260507085529 70 225 0.9 2.6 0.00 0.00 0.00 73 1016.2
20260507085351 70 188 0.9 2.6 0.00 0.00 0.00 73 1016.2
20260507085204 70 188 0.9 3.5 0.00 0.00 0.00 74 1016.2
20260507084936 70 168 0.9 3.5 0.00 0.00 0.00 74 1016.1
20260507084811 70 168 0.9 3.5 0.00 0.00 0.00 74 1016.1
20260507084653 70 168 0.9 3.5 0.00 0.00 0.00 74 1016.0
20260507084506 70 168 0.9 3.5 0.00 0.00 0.00 74 1015.9
20260507084246 70 168 0.9 3.5 0.00 0.00 0.00 73 1015.9
20260507084120 70 168 0.0 1.7 0.00 0.00 0.00 73 1015.9
20260507083931 70 168 0.9 2.6 0.00 0.00 0.00 73 1015.9
20260507083853 70 168 0.9 3.5 0.00 0.00 0.00 73 1015.8
20260507083748 70 168 0.9 3.5 0.00 0.00 0.00 73 1015.8
20260507083622 70 168 0.9 3.5 0.00 0.00 0.00 73 1015.7
20260507083438 70 136 0.9 3.5 0.00 0.00 0.00 73 1015.7
20260507083309 70 136 0.9 3.5 0.00 0.00 0.00 73 1015.7
20260507083123 69 157 0.9 3.5 0.00 0.00 0.00 72 1015.7
20260507083052 69 173 0.9 2.6 0.00 0.00 0.00 72 1015.7
20260507082931 69 159 0.9 3.5 0.00 0.00 0.00 72 1015.7
20260507082744 69 173 0.9 3.5 0.00 0.00 0.00 72 1015.7
20260507082533 69 186 0.9 3.5 0.00 0.00 0.00 72 1015.7
20260507082502 69 186 0.9 3.5 0.00 0.00 0.00 72 1015.7
20260507082225 69 185 0.9 3.5 0.00 0.00 0.00 72 1015.8
20260507081952 69 210 0.9 3.5 0.00 0.00 0.00 72 1015.8
20260507081852 69 203 0.9 3.5 0.00 0.00 0.00 72 1015.8
20260507081737 69 196 0.9 3.5 0.00 0.00 0.00 72 1015.7
20260507081620 69 183 1.7 3.5 0.00 0.00 0.00 73 1015.7
20260507081344 69 183 1.7 3.5 0.00 0.00 0.00 73 1015.7
20260507081229 69 183 1.7 3.5 0.00 0.00 0.00 72 1015.7
20260507081041 69 225 1.7 3.5 0.00 0.00 0.00 73 1015.6
20260507081002 69 194 1.7 3.5 0.00 0.00 0.00 73 1015.6
20260507080902 69 190 1.7 3.5 0.00 0.00 0.00 73 1015.6
20260507080725 69 133 0.9 3.5 0.00 0.00 0.00 73 1015.6
20260507080535 69 140 0.9 3.5 0.00 0.00 0.00 73 1015.6
20260507080326 69 198 0.9 3.5 0.00 0.00 0.00 73 1015.5
20260507080105 69 171 0.9 3.5 0.00 0.00 0.00 73 1015.3
20260507080008 69 192 0.9 3.5 0.00 0.00 0.00 73 1015.3
20260507075839 69 169 0.0 3.5 0.00 0.00 0.00 73 1015.3
20260507075645 69 168 0.0 1.7 0.00 0.00 0.00 73 1015.3
20260507075426 69 168 0.9 1.7 0.00 0.00 0.00 73 1015.3
20260507075413 69 168 0.9 1.7 0.00 0.00 0.00 74 1015.3
20260507075208 69 168 0.9 1.7 0.00 0.00 0.00 73 1015.3
20260507074932 68 168 0.9 1.7 0.00 0.00 0.00 74 1015.2
20260507074842 68 168 0.9 1.7 0.00 0.00 0.00 74 1015.2
20260507074731 68 160 0.9 1.7 0.00 0.00 0.00 74 1015.1
20260507074553 68 113 0.9 2.6 0.00 0.00 0.00 74 1015.0
20260507074418 68 71 0.9 2.6 0.00 0.00 0.00 74 1015.0
20260507074327 68 69 0.9 2.6 0.00 0.00 0.00 74 1015.0
20260507074122 68 69 0.9 2.6 0.00 0.00 0.00 74 1015.0
20260507073858 68 70 0.9 2.6 0.00 0.00 0.00 74 1014.9
20260507073826 68 98 0.9 2.6 0.00 0.00 0.00 74 1015.0
20260507073652 68 99 0.9 2.6 0.00 0.00 0.00 74 1015.0
20260507073543 68 57 0.0 2.6 0.00 0.00 0.00 75 1015.0
20260507073055 68 79 0.0 2.6 0.00 0.00 0.00 75 1015.0
20260507072849 68 81 0.9 2.6 0.00 0.00 0.00 75 1015.0
20260507072656 68 355 0.9 2.6 0.00 0.00 0.00 75 1015.1
20260507072255 68 345 0.9 3.5 0.00 0.00 0.00 75 1015.2
20260507072101 68 343 1.7 3.5 0.00 0.00 0.00 75 1015.3
20260507071854 68 343 1.7 3.5 0.00 0.00 0.00 75 1015.3
20260507071830 68 343 1.7 3.5 0.00 0.00 0.00 75 1015.3
20260507071624 68 322 1.7 3.5 0.00 0.00 0.00 76 1015.4
20260507071359 68 306 0.9 3.5 0.00 0.00 0.00 76 1015.3
20260507071328 68 242 0.9 3.5 0.00 0.00 0.00 77 1015.3
20260507071228 68 227 0.9 3.5 0.00 0.00 0.00 77 1015.4
20260507071104 68 228 0.9 3.5 0.00 0.00 0.00 77 1015.3
20260507070721 67 34 0.9 3.5 0.00 0.00 0.00 78 1015.3
20260507070516 67 263 0.9 3.5 0.00 0.00 0.00 79 1015.3
20260507070348 67 263 0.9 3.5 0.00 0.00 0.00 79 1015.3
20260507070305 67 263 0.9 3.5 0.00 0.00 0.00 79 1015.3
20260507070204 67 175 0.9 3.5 0.00 0.00 0.00 80 1015.4
20260507070025 67 246 0.9 1.7 0.00 0.00 0.00 80 1015.3
20260507065926 67 246 0.9 2.6 0.00 0.00 0.00 80 1015.3
20260507065901 67 246 0.9 2.6 0.00 0.00 0.00 80 1015.3
20260507065724 66 246 0.9 2.6 0.00 0.00 0.00 81 1015.3
20260507065606 66 246 0.9 2.6 0.00 0.00 0.00 81 1015.3
20260507065542 66 246 0.9 3.5 0.00 0.00 0.00 81 1015.4
20260507065443 66 202 0.9 3.5 0.00 0.00 0.00 80 1015.3
20260507065313 66 202 0.9 3.5 0.00 0.00 0.00 81 1015.4
20260507065157 66 191 0.9 3.5 0.00 0.00 0.00 81 1015.4
20260507065127 66 242 0.9 3.5 0.00 0.00 0.00 81 1015.4
20260507064937 66 234 0.9 3.5 0.00 0.00 0.00 81 1015.5
20260507064810 66 206 0.9 2.6 0.00 0.00 0.00 82 1015.5
20260507064728 66 219 0.9 2.6 0.00 0.00 0.00 82 1015.5
20260507064607 66 221 0.9 2.6 0.00 0.00 0.00 82 1015.4
20260507064413 65 232 0.9 2.6 0.00 0.00 0.00 82 1015.4
20260507064313 65 303 0.9 2.6 0.00 0.00 0.00 82 1015.4
20260507064242 65 303 0.9 2.6 0.00 0.00 0.00 82 1015.4
20260507064111 65 286 0.9 2.6 0.00 0.00 0.00 82 1015.4
20260507063948 65 269 0.9 3.5 0.00 0.00 0.00 82 1015.4
20260507063922 65 269 0.9 3.5 0.00 0.00 0.00 82 1015.4
20260507063711 65 194 1.7 3.5 0.00 0.00 0.00 82 1015.4
20260507063536 65 245 1.7 3.5 0.00 0.00 0.00 82 1015.3
20260507063415 65 245 1.7 3.5 0.00 0.00 0.00 82 1015.3
20260507063334 65 279 1.7 3.5 0.00 0.00 0.00 83 1015.3
20260507063125 65 214 1.7 4.3 0.00 0.00 0.00 83 1015.4
20260507062921 65 271 1.7 4.3 0.00 0.00 0.00 83 1015.3
20260507062905 65 271 1.7 4.3 0.00 0.00 0.00 83 1015.3
20260507062722 65 204 1.7 4.3 0.00 0.00 0.00 83 1015.3
20260507062553 65 254 1.7 4.3 0.00 0.00 0.00 83 1015.3
20260507062502 65 233 1.7 4.3 0.00 0.00 0.00 84 1015.3
20260507062403 65 217 1.7 4.3 0.00 0.00 0.00 84 1015.3
20260507062226 65 238 1.7 3.5 0.00 0.00 0.00 84 1015.3
20260507062048 64 253 1.7 3.5 0.00 0.00 0.00 85 1015.2
20260507062024 64 254 1.7 3.5 0.00 0.00 0.00 85 1015.2
20260507061851 64 227 1.7 3.5 0.00 0.00 0.00 85 1015.2
20260507061707 64 226 0.9 3.5 0.00 0.00 0.00 86 1015.1
20260507061601 64 229 0.9 3.5 0.00 0.00 0.00 86 1015.1
20260507061504 64 229 0.9 3.5 0.00 0.00 0.00 86 1015.1
20260507061321 64 229 0.9 3.5 0.00 0.00 0.00 87 1015.0
20260507060928 64 218 0.9 2.6 0.00 0.00 0.00 87 1015.0
20260507060710 63 218 0.9 2.6 0.00 0.00 0.00 87 1015.1
20260507060506 63 217 0.9 2.6 0.00 0.00 0.00 88 1015.0
20260507060435 63 218 0.9 2.6 0.00 0.00 0.00 88 1015.0